Paganella, Italy

11:36 AM CET on January 16, 2018 (GMT +0100)
Paganella

Weather History for LIVP - September, 2013

Change the Weather History Date:

Friday, September 27, 2013

  Actual Average Record
Temperature  
Mean Temperature 48 °F -  
Max Temperature 52 °F 44 °F 56 °F (2014)
Min Temperature 45 °F 36 °F 28 °F (2007)
Degree Days  
Heating Degree Days 16    
Moisture  
Dew Point 43 °F    
Average Humidity 82    
Maximum Humidity 100    
Minimum Humidity 66    
Precipitation  
Precipitation 0.00 in 0.10 in - ()
Sea Level Pressure  
Sea Level Pressure 30.11 in    
Wind  
Wind Speed 4 mph ()    
Max Wind Speed 9 mph    
Max Gust Speed -    
Visibility 6.5 miles    
Events Fog    
Averages and records for this station are not official NWS values.
T = Trace of Precipitation, MM = Missing Value Source: Averaged Metar Reports

Daily Weather History Graph

Daily Weather History Graph

Search for Another Location

Airport or City:

Trip Planner

Search our weather history database for the weather conditions in past years. The results will help you decide how hot, cold, wet, or windy it might be!

Date:

Astronomy

Sep. 27, 2013 Rise Set
Actual Time 7:09 AM CEST 7:03 PM CEST
Civil Twilight 6:39 AM CEST 7:33 PM CEST
Nautical Twilight 6:04 AM CEST 8:08 PM CEST
Astronomical Twilight 5:28 AM CEST 8:43 PM CEST
Moon No Moon Rise 2:47 PM CEST (9/27)
Length of Visible Light 12h 54m
Length of Day
11h 54m
Waning Gibbous, 48% of the Moon is Illuminated
Sep 27
Waning Gibbous
Oct 5
New
Oct 12
First Quarter
Oct 19
Full
Oct 27
Last Quarter

Hourly Weather History & Observations

Time (CEST) Temp. Windchill Dew Point Humidity Pressure Visibility Wind Dir Wind Speed Gust Speed Precip Events Conditions
12:55 AM 46.4 °F 43.5 °F 42.8 °F 87% 30.12 in - North 5.8 mph - N/A   Clear
1:55 AM 46.4 °F 45.2 °F 41.0 °F 81% 30.12 in - Variable 3.5 mph - N/A   Clear
2:55 AM 46.4 °F 43.5 °F 39.2 °F 76% 30.12 in - North 5.8 mph - N/A   Clear
3:55 AM 46.4 °F 44.3 °F 41.0 °F 81% 30.12 in - North 4.6 mph - N/A   Clear
4:55 AM 44.6 °F 41.4 °F 41.0 °F 87% 30.12 in - North 5.8 mph - N/A   Clear
5:00 AM 45 °F - 40 °F 77%  in 12 mi North 5.8 mph - -   Partly Cloudy
5:55 AM 44.6 °F 41.4 °F 39.2 °F 81% 30.12 in - North 5.8 mph - N/A   Clear
6:55 AM 46.4 °F 45.2 °F 37.4 °F 71% 30.12 in - NNW 3.5 mph - N/A   Clear
7:55 AM 46.4 °F 42.9 °F 39.2 °F 76% 30.12 in - SW 6.9 mph - N/A   Clear
8:00 AM 46 °F - 39 °F 67%  in 12 mi SW 6.9 mph - -   Partly Cloudy
8:55 AM 46.4 °F 44.3 °F 39.2 °F 76% 30.12 in - SW 4.6 mph - N/A   Clear
9:55 AM 48.2 °F - 42.8 °F 82% 30.12 in - SW 5.8 mph - N/A   Clear
10:55 AM 50.0 °F - 44.6 °F 82% 30.12 in 6.2 mi South 5.8 mph - N/A   Scattered Clouds
11:00 AM 49 °F - 45 °F 80%  in 19 mi South 5.8 mph - -   Partly Cloudy
11:55 AM 50.0 °F - 46.4 °F 87% 30.12 in 6.2 mi SW 5.8 mph - N/A   Scattered Clouds
12:55 PM 50.0 °F - 46.4 °F 87% 30.12 in 0.4 mi SW 5.8 mph - N/A Fog Fog
1:55 PM 50.0 °F - 46.4 °F 87% 30.09 in 6.2 mi Variable 2.3 mph - N/A   Partly Cloudy
2:00 PM 50 °F - 47 °F 85%  in 2 mi 2.3 mph - -   Mist
2:55 PM 51.8 °F - 48.2 °F 88% 30.09 in 6.2 mi Variable 3.5 mph - N/A   Partly Cloudy
3:55 PM 50.0 °F - 50.0 °F 100% 30.09 in 0.2 mi Calm Calm - N/A Fog Fog
4:55 PM 51.8 °F - 44.6 °F 76% 30.09 in 6.2 mi Calm Calm - N/A   Partly Cloudy
5:00 PM 52 °F - 44 °F 66%  in 6 mi Calm Calm - - Fog Light Fog
5:55 PM 50.0 °F - 42.8 °F 76% 30.09 in 6.2 mi North 3.5 mph - N/A   Partly Cloudy
6:55 PM 48.2 °F - 44.6 °F 87% 30.09 in 6.2 mi Calm Calm - N/A   Partly Cloudy
7:55 PM 48.2 °F - 42.8 °F 82% 30.09 in - Calm Calm - N/A   Clear
8:00 PM 49 °F - 43 °F 71%  in 9 mi Calm Calm - -   Partly Cloudy
8:55 PM 48.2 °F - 41.0 °F 76% 30.09 in - SW 4.6 mph - N/A   Clear
9:55 PM 48.2 °F - 44.6 °F 87% 30.12 in - WSW 8.1 mph - N/A   Clear
10:55 PM 46.4 °F 41.9 °F 44.6 °F 93% 30.12 in - SW 9.2 mph - N/A   Clear
11:00 PM 47 °F - 45 °F 89%  in 6 mi SW 9.2 mph - -   Partly Cloudy
11:55 PM 46.4 °F 41.9 °F 46.4 °F 100% 30.12 in 0.0 mi SW 9.2 mph - N/A Fog Fog